Location: Unspecified
(51.6250°N, 0.8230°E)
Time: 05:53:06
(UTC+00:00)

ISS - Pass Details

Date: 01 February 2021
Orbit: 417 x 422 km, 51.6° (Epoch: 02 March)

Event Time Altitude Azimuth Distance (km) Brightness Sun altitude
Rises 17:50:07 0° 281° (W) 2,375 1.4 -10.1°
Reaches altitude 10° 17:52:13 10° 279° (W) 1,510 0.3 -10.4°
Maximum altitude 17:55:35 69° 196° (SSW) 456 -3.5 -10.9°
Enters shadow 17:58:32 13° 113° (ESE) 1,337 -1.7 -11.4°
